Regional Weather Roundup
Issued by NWS State College, PA

Home | Current Version | Previous Version | Graphics & Text | Print | Product List | Glossary On
Versions: 1 2 3 4 5 6 7 8 9 10 11 12 13 14 15 16 17 18 19 20 21 22 23 24 25 26 27 28 29 30 31 32 33 34 35 36 37 38 39 40 41 42 43 44 45 46 47 48 49 50
000
ASUS41 KCTP 280710
RWRCTP

REGIONAL WEATHER ROUNDUP
NATIONAL WEATHER SERVICE STATE COLLEGE PA
200 AM EST WED JAN 28 2015

Note: "fair" indicates few or no clouds below 12,000 feet with no
significant weather and/or obstructions to visibility.

* = STATION THAT DOES NOT REPORT PRECIPITATION /E.G. RAIN...SNOW...ETC/
    THUNDER OR FOG.

PAZ002>004-007>009-013>016-020>023-029>032-280800-
WESTERN PENNSYLVANIA

CITY           SKY/WX    TMP DP  RH WIND       PRES   REMARKS
ERIE           CLEAR      6   1  80 S3        30.17R
MEADVILLE      PTCLDY    12   7  80 CALM      30.11R
FRANKLIN*      CLOUDY    12   7  79 NW5       30.11R WCI   4
NEW CASTLE     PTSUNNY   10   7  88 CALM      30.17R
BEAVER COUNTY  NOT AVBL
BUTLER*        CLOUDY    14   9  79 CALM      30.14S
PITTSBURGH INT FLURRIES  15  10  80 NW6       30.15R WCI   6
PITTSBURGH     CLOUDY    15   9  76 W7        30.13R HAZE    WCI   5
INDIANA*       CLOUDY     9   7  92 CALM      30.15R
LATROBE        CLEAR     10   9  92 CALM      30.16R
WASHINGTON CO* CLOUDY    16  10  79 MISG      30.16S
$$

PAZ004>006-010>012-017>019-024>028-033>037-041-042-045-046-049>053-280800-
CENTRAL PENNSYLVANIA

CITY           SKY/WX    TMP DP  RH WIND       PRES   REMARKS
BRADFORD       PTCLDY     2  -1  88 NW5       29.99R WCI  -8
DUBOIS         CLEAR      6   3  87 W8        30.03S WCI  -7
CLEARFIELD     CLEAR      8   3  80 SW5       30.05R WCI   0
JOHNSTOWN      MOCLDY     9   5  84 W10       30.00R WCI  -5
ALTOONA        CLEAR     13   5  70 NW12      30.05R WCI  -1
STATE COLLEGE  CLEAR     11   2  66 W6        30.04S WCI   2
WILLIAMSPORT   PTCLDY    13   1  59 W10       30.05R WCI   0
SELINSGROVE    PTCLDY     9  -1  64 CALM      30.05S
FT INDIANTOWN  PTCLDY    17   1  48 N15G26    30.00R WCI   2
CAPITAL CITY   CLEAR     20   3  48 NW9       30.04R WCI   9
HARRISBURG     PTCLDY    18   3  52 NW12G22   30.04R WCI   5
YORK           CLEAR     19   4  51 NW10G16   30.02R WCI   7
$$

PAZ038>040-043-044-047-048-054-055-060>062-067>071-280800-
EASTERN PENNSYLVANIA

CITY           SKY/WX    TMP DP  RH WIND       PRES   REMARKS
SCRANTON       CLEAR     12  -2  53 NW9       29.95R WCI   0
MOUNT POCONO   CLEAR      8  -5  55 NW18G32   29.78R WCI -11
ALLENTOWN      PTCLDY    16  -1  47 NW13G26   29.95R WCI   2
QUAKERTOWN*    NOT AVBL
READING        PTCLDY    17   3  54 NW18      29.98R WCI   1
LANCASTER      CLEAR     16   1  51 NW13      29.99R WCI   2
COATESVILLE    SUNNY     18   7  62 NW18G26   29.94R WCI   2
POTTSTOWN      PTCLDY    16   4  59 NW10      29.97R WCI   4
BLUE BELL      PTCLDY    19   9  63 NW5       29.93R WCI  13
DOYLESTOWN     PTCLDY    15   2  56 NW9G22    29.92R WCI   3
WILLOW GROVE   NOT AVBL
NORTH PHILA    PTCLDY    20   4  50 NW10G18   29.96R WCI   9
PHILADELPHIA   PTCLDY    20   6  55 NW13G22   29.97R WCI   7
$$


USA.gov is the U.S. government's official web portal to all federal, state and local government web resources and services.